owner,sensor,date,latitude,longitude,air_pressure(mBar),qcFlag 
TABS,ioos:station:wmo:42044:1,2014-03-01T00:00:00Z,26.1914,-97.0507,1010.77,11111222 
TABS,ioos:station:wmo:42044:1,2014-03-01T00:30:00Z,26.1914,-97.0507,1010.84,11111222 
TABS,ioos:station:wmo:42044:1,2014-03-01T01:00:00Z,26.1914,-97.0507,1011.14,11111222 
TABS,ioos:station:wmo:42044:1,2014-03-01T01:30:00Z,26.1914,-97.0507,1011.33,11111222 
TABS,ioos:station:wmo:42044:1,2014-03-01T02:00:00Z,26.1914,-97.0507,1011.86,11111222 
TABS,ioos:station:wmo:42044:1,2014-03-01T02:30:00Z,26.1914,-97.0507,1012.36,11111222 
TABS,ioos:station:wmo:42044:1,2014-03-01T03:00:00Z,26.1914,-97.0507,1012.79,11111222 
TABS,ioos:station:wmo:42044:1,2014-03-01T03:30:00Z,26.1914,-97.0507,1012.98,11111222 
TABS,ioos:station:wmo:42044:1,2014-03-01T04:00:00Z,26.1914,-97.0507,1013.22,11111222 
TABS,ioos:station:wmo:42044:1,2014-03-01T04:30:00Z,26.1914,-97.0507,1013.31,11111222 
TABS,ioos:station:wmo:42044:1,2014-03-01T05:00:00Z,26.1914,-97.0507,1013.11,11111222 
TABS,ioos:station:wmo:42044:1,2014-03-01T05:30:00Z,26.1914,-97.0507,1013.31,11111222 
TABS,ioos:station:wmo:42044:1,2014-03-01T06:00:00Z,26.1914,-97.0507,1013.09,11111222 
TABS,ioos:station:wmo:42044:1,2014-03-01T06:30:00Z,26.1914,-97.0507,1012.88,11111222 
TABS,ioos:station:wmo:42044:1,2014-03-01T07:00:00Z,26.1914,-97.0507,1012.94,11111222 
TABS,ioos:station:wmo:42044:1,2014-03-01T07:30:00Z,26.1914,-97.0507,1013.02,11111222 
TABS,ioos:station:wmo:42044:1,2014-03-01T08:00:00Z,26.1914,-97.0507,1012.89,11111222 
TABS,ioos:station:wmo:42044:1,2014-03-01T08:30:00Z,26.1914,-97.0507,1012.76,11111222 
TABS,ioos:station:wmo:42044:1,2014-03-01T09:00:00Z,26.1914,-97.0507,1012.66,11111222 
TABS,ioos:station:wmo:42044:1,2014-03-01T09:30:00Z,26.1914,-97.0507,1012.61,11111222 
TABS,ioos:station:wmo:42044:1,2014-03-01T10:00:00Z,26.1914,-97.0507,1012.73,11111222 
TABS,ioos:station:wmo:42044:1,2014-03-01T10:30:00Z,26.1914,-97.0507,1012.87,11111222 
TABS,ioos:station:wmo:42044:1,2014-03-01T11:00:00Z,26.1914,-97.0507,1012.93,11111222 
TABS,ioos:station:wmo:42044:1,2014-03-01T11:30:00Z,26.1914,-97.0507,1013.25,11111222 
TABS,ioos:station:wmo:42044:1,2014-03-01T12:00:00Z,26.1914,-97.0507,1013.47,11111222 
TABS,ioos:station:wmo:42044:1,2014-03-01T12:30:00Z,26.1914,-97.0507,1013.71,11111222 
TABS,ioos:station:wmo:42044:1,2014-03-01T13:00:00Z,26.1914,-97.0507,1014.07,11111222 
TABS,ioos:station:wmo:42044:1,2014-03-01T13:30:00Z,26.1914,-97.0507,1014.29,11111222 
TABS,ioos:station:wmo:42044:1,2014-03-01T14:00:00Z,26.1914,-97.0507,1014.41,11111222 
TABS,ioos:station:wmo:42044:1,2014-03-01T14:30:00Z,26.1914,-97.0507,1014.49,11111222 
TABS,ioos:station:wmo:42044:1,2014-03-01T15:00:00Z,26.1914,-97.0507,1014.87,11111222 
TABS,ioos:station:wmo:42044:1,2014-03-01T15:30:00Z,26.1914,-97.0507,1015.28,11111222 
TABS,ioos:station:wmo:42044:1,2014-03-01T16:00:00Z,26.1914,-97.0507,1015.69,11111222 
TABS,ioos:station:wmo:42044:1,2014-03-01T16:30:00Z,26.1914,-97.0507,1015.97,11111222 
TABS,ioos:station:wmo:42044:1,2014-03-01T17:00:00Z,26.1914,-97.0507,1015.98,11111222 
TABS,ioos:station:wmo:42044:1,2014-03-01T17:30:00Z,26.1914,-97.0507,1015.84,11111222 
TABS,ioos:station:wmo:42044:1,2014-03-01T18:00:00Z,26.1914,-97.0507,1015.61,11111222 
TABS,ioos:station:wmo:42044:1,2014-03-01T18:30:00Z,26.1914,-97.0507,1015.41,11111222 
TABS,ioos:station:wmo:42044:1,2014-03-01T19:00:00Z,26.1914,-97.0507,1015.0,11111222 
TABS,ioos:station:wmo:42044:1,2014-03-01T19:30:00Z,26.1914,-97.0507,1014.36,11111222 
TABS,ioos:station:wmo:42044:1,2014-03-01T20:00:00Z,26.1914,-97.0507,1014.02,11111222 
TABS,ioos:station:wmo:42044:1,2014-03-01T20:30:00Z,26.1914,-97.0507,1013.77,11111222 
TABS,ioos:station:wmo:42044:1,2014-03-01T21:00:00Z,26.1914,-97.0507,1013.63,11111222 
TABS,ioos:station:wmo:42044:1,2014-03-01T21:30:00Z,26.1914,-97.0507,1013.42,11111222 
TABS,ioos:station:wmo:42044:1,2014-03-01T22:00:00Z,26.1914,-97.0507,1013.22,11111222 
TABS,ioos:station:wmo:42044:1,2014-03-01T22:30:00Z,26.1914,-97.0507,1013.07,11111222 
TABS,ioos:station:wmo:42044:1,2014-03-01T23:00:00Z,26.1914,-97.0507,1013.15,11111222 
TABS,ioos:station:wmo:42044:1,2014-03-01T23:30:00Z,26.1914,-97.0507,1013.12,11111222 
TABS,ioos:station:wmo:42044:1,2014-03-02T00:00:00Z,26.1914,-97.0507,1013.23,11111222 
TABS,ioos:station:wmo:42044:1,2014-03-02T00:30:00Z,26.1914,-97.0507,1013.38,11111222 
TABS,ioos:station:wmo:42044:1,2014-03-02T01:00:00Z,26.1914,-97.0507,1013.47,11111222 
TABS,ioos:station:wmo:42044:1,2014-03-02T01:30:00Z,26.1914,-97.0507,1013.71,11111222 
TABS,ioos:station:wmo:42044:1,2014-03-02T02:00:00Z,26.1914,-97.0507,1014.05,11111222 
TABS,ioos:station:wmo:42044:1,2014-03-02T02:30:00Z,26.1914,-97.0507,1014.32,11111222 
TABS,ioos:station:wmo:42044:1,2014-03-02T03:00:00Z,26.1914,-97.0507,1014.57,11111222 
TABS,ioos:station:wmo:42044:1,2014-03-02T03:30:00Z,26.1914,-97.0507,1014.61,11111222 
TABS,ioos:station:wmo:42044:1,2014-03-02T04:00:00Z,26.1914,-97.0507,1014.58,11111222 
TABS,ioos:station:wmo:42044:1,2014-03-02T04:30:00Z,26.1914,-97.0507,1014.56,11111222 
TABS,ioos:station:wmo:42044:1,2014-03-02T05:00:00Z,26.1914,-97.0507,1014.62,11111222 
TABS,ioos:station:wmo:42044:1,2014-03-02T05:30:00Z,26.1914,-97.0507,1014.23,11111222 
TABS,ioos:station:wmo:42044:1,2014-03-02T06:00:00Z,26.1914,-97.0507,1014.12,11111222 
TABS,ioos:station:wmo:42044:1,2014-03-02T06:30:00Z,26.1914,-97.0507,1013.73,11111222 
TABS,ioos:station:wmo:42044:1,2014-03-02T07:00:00Z,26.1914,-97.0507,1013.44,11111222 
TABS,ioos:station:wmo:42044:1,2014-03-02T07:30:00Z,26.1914,-97.0507,1013.16,11111222 
TABS,ioos:station:wmo:42044:1,2014-03-02T08:00:00Z,26.1914,-97.0507,1012.76,11111222 
TABS,ioos:station:wmo:42044:1,2014-03-02T08:30:00Z,26.1914,-97.0507,1012.52,11111222 
TABS,ioos:station:wmo:42044:1,2014-03-02T09:00:00Z,26.1914,-97.0507,1012.37,11111222 
TABS,ioos:station:wmo:42044:1,2014-03-02T09:30:00Z,26.1914,-97.0507,1012.2,11111222 
TABS,ioos:station:wmo:42044:1,2014-03-02T10:00:00Z,26.1914,-97.0507,1012.24,11111222 
TABS,ioos:station:wmo:42044:1,2014-03-02T10:30:00Z,26.1914,-97.0507,1012.33,11111222 
TABS,ioos:station:wmo:42044:1,2014-03-02T11:00:00Z,26.1914,-97.0507,1012.4,11111222 
TABS,ioos:station:wmo:42044:1,2014-03-02T11:30:00Z,26.1914,-97.0507,1012.43,11111222 
TABS,ioos:station:wmo:42044:1,2014-03-02T12:00:00Z,26.1914,-97.0507,1012.63,11111222 
TABS,ioos:station:wmo:42044:1,2014-03-02T12:30:00Z,26.1914,-97.0507,1012.79,11111222 
TABS,ioos:station:wmo:42044:1,2014-03-02T13:00:00Z,26.1914,-97.0507,1012.96,11111222 
TABS,ioos:station:wmo:42044:1,2014-03-02T13:30:00Z,26.1914,-97.0507,1013.03,11111222 
TABS,ioos:station:wmo:42044:1,2014-03-02T14:00:00Z,26.1914,-97.0507,1013.33,11111222 
TABS,ioos:station:wmo:42044:1,2014-03-02T14:30:00Z,26.1914,-97.0507,1013.62,11111222 
TABS,ioos:station:wmo:42044:1,2014-03-02T15:00:00Z,26.1914,-97.0507,1014.0,11111222 
TABS,ioos:station:wmo:42044:1,2014-03-02T15:30:00Z,26.1914,-97.0507,1014.27,11111222 
TABS,ioos:station:wmo:42044:1,2014-03-02T16:00:00Z,26.1914,-97.0507,1014.02,11111222 
TABS,ioos:station:wmo:42044:1,2014-03-02T16:30:00Z,26.1914,-97.0507,1013.63,11111222 
TABS,ioos:station:wmo:42044:1,2014-03-02T17:00:00Z,26.1914,-97.0507,1013.36,11111222 
TABS,ioos:station:wmo:42044:1,2014-03-02T17:30:00Z,26.1914,-97.0507,1013.08,11111222 
TABS,ioos:station:wmo:42044:1,2014-03-02T18:00:00Z,26.1914,-97.0507,1012.55,11111222 
TABS,ioos:station:wmo:42044:1,2014-03-02T18:30:00Z,26.1914,-97.0507,1011.88,11111222 
TABS,ioos:station:wmo:42044:1,2014-03-02T19:00:00Z,26.1914,-97.0507,1011.26,11111222 
TABS,ioos:station:wmo:42044:1,2014-03-02T19:30:00Z,26.1914,-97.0507,1010.77,11111222 
TABS,ioos:station:wmo:42044:1,2014-03-02T20:00:00Z,26.1914,-97.0507,1010.37,11111222 
TABS,ioos:station:wmo:42044:1,2014-03-02T20:30:00Z,26.1914,-97.0507,1009.67,11111222 
TABS,ioos:station:wmo:42044:1,2014-03-02T21:00:00Z,26.1914,-97.0507,1009.88,11111222 
TABS,ioos:station:wmo:42044:1,2014-03-02T21:30:00Z,26.1914,-97.0507,1009.95,11111222 
TABS,ioos:station:wmo:42044:1,2014-03-02T22:00:00Z,26.1914,-97.0507,1009.23,11111222 
TABS,ioos:station:wmo:42044:1,2014-03-02T22:30:00Z,26.1914,-97.0507,1009.28,11111222 
TABS,ioos:station:wmo:42044:1,2014-03-02T23:00:00Z,26.1914,-97.0507,1009.83,11111222 
TABS,ioos:station:wmo:42044:1,2014-03-02T23:30:00Z,26.1914,-97.0507,1010.33,11111222 
TABS,ioos:station:wmo:42044:1,2014-03-03T00:00:00Z,26.1914,-97.0507,1010.75,11111222 
TABS,ioos:station:wmo:42044:1,2014-03-03T00:30:00Z,26.1914,-97.0507,1010.92,11111222 
TABS,ioos:station:wmo:42044:1,2014-03-03T01:00:00Z,26.1914,-97.0507,1011.24,11111222 
TABS,ioos:station:wmo:42044:1,2014-03-03T01:30:00Z,26.1914,-97.0507,1011.34,11111222 
TABS,ioos:station:wmo:42044:1,2014-03-03T02:00:00Z,26.1914,-97.0507,1011.21,11111222 
TABS,ioos:station:wmo:42044:1,2014-03-03T02:30:00Z,26.1914,-97.0507,1012.26,11111222 
TABS,ioos:station:wmo:42044:1,2014-03-03T03:00:00Z,26.1914,-97.0507,1013.0,11111222 
TABS,ioos:station:wmo:42044:1,2014-03-03T03:30:00Z,26.1914,-97.0507,1013.16,11111222 
TABS,ioos:station:wmo:42044:1,2014-03-03T04:00:00Z,26.1914,-97.0507,1013.75,11111222 
TABS,ioos:station:wmo:42044:1,2014-03-03T04:30:00Z,26.1914,-97.0507,1013.87,11111222 
TABS,ioos:station:wmo:42044:1,2014-03-03T05:00:00Z,26.1914,-97.0507,1014.24,11111222 
TABS,ioos:station:wmo:42044:1,2014-03-03T05:30:00Z,26.1914,-97.0507,1014.32,11111222 
TABS,ioos:station:wmo:42044:1,2014-03-03T06:00:00Z,26.1914,-97.0507,1014.71,11111222 
TABS,ioos:station:wmo:42044:1,2014-03-03T06:30:00Z,26.1914,-97.0507,1014.85,11111222 
TABS,ioos:station:wmo:42044:1,2014-03-03T07:00:00Z,26.1914,-97.0507,1015.61,11111222 
TABS,ioos:station:wmo:42044:1,2014-03-03T07:30:00Z,26.1914,-97.0507,1015.83,11111222 
TABS,ioos:station:wmo:42044:1,2014-03-03T08:00:00Z,26.1914,-97.0507,1015.8,11111222 
TABS,ioos:station:wmo:42044:1,2014-03-03T08:30:00Z,26.1914,-97.0507,1016.25,11111222 
TABS,ioos:station:wmo:42044:1,2014-03-03T09:00:00Z,26.1914,-97.0507,1016.35,11111222 
TABS,ioos:station:wmo:42044:1,2014-03-03T09:30:00Z,26.1914,-97.0507,1016.97,11111222 
TABS,ioos:station:wmo:42044:1,2014-03-03T10:00:00Z,26.1914,-97.0507,1016.83,11111222 
TABS,ioos:station:wmo:42044:1,2014-03-03T10:30:00Z,26.1914,-97.0507,1017.29,11111222 
TABS,ioos:station:wmo:42044:1,2014-03-03T11:00:00Z,26.1914,-97.0507,1017.99,11111222 
TABS,ioos:station:wmo:42044:1,2014-03-03T11:30:00Z,26.1914,-97.0507,1018.74,11111222 
TABS,ioos:station:wmo:42044:1,2014-03-03T12:00:00Z,26.1914,-97.0507,1019.44,11111222 
TABS,ioos:station:wmo:42044:1,2014-03-03T12:30:00Z,26.1914,-97.0507,1019.97,11111222 
TABS,ioos:station:wmo:42044:1,2014-03-03T13:00:00Z,26.1914,-97.0507,1020.85,11111222 
TABS,ioos:station:wmo:42044:1,2014-03-03T13:30:00Z,26.1914,-97.0507,1021.25,11111222 
TABS,ioos:station:wmo:42044:1,2014-03-03T14:00:00Z,26.1914,-97.0507,1022.64,11111222 
TABS,ioos:station:wmo:42044:1,2014-03-03T14:30:00Z,26.1914,-97.0507,1023.49,11111222 
TABS,ioos:station:wmo:42044:1,2014-03-03T15:00:00Z,26.1914,-97.0507,1023.75,11111222 
TABS,ioos:station:wmo:42044:1,2014-03-03T15:30:00Z,26.1914,-97.0507,1023.36,11111222 
TABS,ioos:station:wmo:42044:1,2014-03-03T16:00:00Z,26.1914,-97.0507,1024.54,11111222 
TABS,ioos:station:wmo:42044:1,2014-03-03T16:30:00Z,26.1914,-97.0507,1024.85,11111222 
TABS,ioos:station:wmo:42044:1,2014-03-03T17:00:00Z,26.1914,-97.0507,1024.76,11111222 
TABS,ioos:station:wmo:42044:1,2014-03-03T17:30:00Z,26.1914,-97.0507,1023.42,11111222 
TABS,ioos:station:wmo:42044:1,2014-03-03T18:00:00Z,26.1914,-97.0507,1023.72,11111222 
TABS,ioos:station:wmo:42044:1,2014-03-03T18:30:00Z,26.1914,-97.0507,1024.74,11111222 
TABS,ioos:station:wmo:42044:1,2014-03-03T19:00:00Z,26.1914,-97.0507,1023.65,11111222 
TABS,ioos:station:wmo:42044:1,2014-03-03T19:30:00Z,26.1914,-97.0507,1022.72,11111222 
TABS,ioos:station:wmo:42044:1,2014-03-03T20:00:00Z,26.1914,-97.0507,1022.51,11111222 
TABS,ioos:station:wmo:42044:1,2014-03-03T20:30:00Z,26.1914,-97.0507,1022.73,11111222 
TABS,ioos:station:wmo:42044:1,2014-03-03T21:00:00Z,26.1914,-97.0507,1022.68,11111222 
TABS,ioos:station:wmo:42044:1,2014-03-03T21:30:00Z,26.1914,-97.0507,1022.34,11111222 
TABS,ioos:station:wmo:42044:1,2014-03-03T22:00:00Z,26.1914,-97.0507,1022.31,11111222 
TABS,ioos:station:wmo:42044:1,2014-03-03T22:30:00Z,26.1914,-97.0507,1022.13,11111222 
TABS,ioos:station:wmo:42044:1,2014-03-03T23:00:00Z,26.1914,-97.0507,1022.28,11111222 
TABS,ioos:station:wmo:42044:1,2014-03-03T23:30:00Z,26.1914,-97.0507,1021.93,11111222 
TABS,ioos:station:wmo:42044:1,2014-03-04T00:00:00Z,26.1914,-97.0507,1021.9,11111222 
TABS,ioos:station:wmo:42044:1,2014-03-04T00:30:00Z,26.1914,-97.0507,1021.82,11111222 
TABS,ioos:station:wmo:42044:1,2014-03-04T01:00:00Z,26.1914,-97.0507,1021.69,11111222 
TABS,ioos:station:wmo:42044:1,2014-03-04T01:30:00Z,26.1914,-97.0507,1021.77,11111222 
TABS,ioos:station:wmo:42044:1,2014-03-04T02:00:00Z,26.1914,-97.0507,1021.77,11111222 
TABS,ioos:station:wmo:42044:1,2014-03-04T02:30:00Z,26.1914,-97.0507,1022.18,11111222 
TABS,ioos:station:wmo:42044:1,2014-03-04T03:00:00Z,26.1914,-97.0507,1021.8,11111222 
TABS,ioos:station:wmo:42044:1,2014-03-04T03:30:00Z,26.1914,-97.0507,1022.1,11111222 
TABS,ioos:station:wmo:42044:1,2014-03-04T04:00:00Z,26.1914,-97.0507,1022.22,11111222 
TABS,ioos:station:wmo:42044:1,2014-03-04T04:30:00Z,26.1914,-97.0507,1022.1,11111222 
TABS,ioos:station:wmo:42044:1,2014-03-04T05:00:00Z,26.1914,-97.0507,1022.39,11111222 
TABS,ioos:station:wmo:42044:1,2014-03-04T05:30:00Z,26.1914,-97.0507,1021.92,11111222 
TABS,ioos:station:wmo:42044:1,2014-03-04T06:00:00Z,26.1914,-97.0507,1021.93,11111222 
TABS,ioos:station:wmo:42044:1,2014-03-04T06:30:00Z,26.1914,-97.0507,1020.87,11111222 
TABS,ioos:station:wmo:42044:1,2014-03-04T07:00:00Z,26.1914,-97.0507,1020.44,11111222 
TABS,ioos:station:wmo:42044:1,2014-03-04T07:30:00Z,26.1914,-97.0507,1019.83,11111222 
TABS,ioos:station:wmo:42044:1,2014-03-04T08:00:00Z,26.1914,-97.0507,1019.72,11111222 
TABS,ioos:station:wmo:42044:1,2014-03-04T08:30:00Z,26.1914,-97.0507,1020.02,11111222 
TABS,ioos:station:wmo:42044:1,2014-03-04T09:00:00Z,26.1914,-97.0507,1019.41,11111222 
TABS,ioos:station:wmo:42044:1,2014-03-04T09:30:00Z,26.1914,-97.0507,1019.41,11111222 
TABS,ioos:station:wmo:42044:1,2014-03-04T10:00:00Z,26.1914,-97.0507,1020.25,11111222 
TABS,ioos:station:wmo:42044:1,2014-03-04T10:30:00Z,26.1914,-97.0507,1019.01,11111222 
TABS,ioos:station:wmo:42044:1,2014-03-04T11:00:00Z,26.1914,-97.0507,1018.64,11111222 
TABS,ioos:station:wmo:42044:1,2014-03-04T11:30:00Z,26.1914,-97.0507,1019.33,11111222 
TABS,ioos:station:wmo:42044:1,2014-03-04T12:00:00Z,26.1914,-97.0507,1019.38,11111222 
TABS,ioos:station:wmo:42044:1,2014-03-04T12:30:00Z,26.1914,-97.0507,1019.96,11111222 
TABS,ioos:station:wmo:42044:1,2014-03-04T13:00:00Z,26.1914,-97.0507,1020.07,11111222 
TABS,ioos:station:wmo:42044:1,2014-03-04T13:30:00Z,26.1914,-97.0507,1020.02,11111222 
TABS,ioos:station:wmo:42044:1,2014-03-04T14:00:00Z,26.1914,-97.0507,1020.01,11111222 
TABS,ioos:station:wmo:42044:1,2014-03-04T14:30:00Z,26.1914,-97.0507,1020.47,11111222 
TABS,ioos:station:wmo:42044:1,2014-03-04T15:00:00Z,26.1914,-97.0507,1020.41,11111222 
TABS,ioos:station:wmo:42044:1,2014-03-04T15:30:00Z,26.1914,-97.0507,1020.82,11111222 
TABS,ioos:station:wmo:42044:1,2014-03-04T16:00:00Z,26.1914,-97.0507,1020.64,11111222 
TABS,ioos:station:wmo:42044:1,2014-03-04T16:30:00Z,26.1914,-97.0507,1021.09,11111222 
TABS,ioos:station:wmo:42044:1,2014-03-04T17:00:00Z,26.1914,-97.0507,1020.67,11111222 
TABS,ioos:station:wmo:42044:1,2014-03-04T17:30:00Z,26.1914,-97.0507,1020.59,11111222 
TABS,ioos:station:wmo:42044:1,2014-03-04T18:00:00Z,26.1914,-97.0507,1020.33,11111222 
TABS,ioos:station:wmo:42044:1,2014-03-04T18:30:00Z,26.1914,-97.0507,1019.87,11111222 
TABS,ioos:station:wmo:42044:1,2014-03-04T19:00:00Z,26.1914,-97.0507,1019.45,11111222 
TABS,ioos:station:wmo:42044:1,2014-03-04T19:30:00Z,26.1914,-97.0507,1018.72,11111222 
TABS,ioos:station:wmo:42044:1,2014-03-04T20:00:00Z,26.1914,-97.0507,1018.1,11111222 
TABS,ioos:station:wmo:42044:1,2014-03-04T20:30:00Z,26.1914,-97.0507,1017.58,11111222 
TABS,ioos:station:wmo:42044:1,2014-03-04T21:00:00Z,26.1914,-97.0507,1017.21,11111222 
TABS,ioos:station:wmo:42044:1,2014-03-04T21:30:00Z,26.1914,-97.0507,1016.96,11111222 
TABS,ioos:station:wmo:42044:1,2014-03-04T22:00:00Z,26.1914,-97.0507,1017.01,11111222 
TABS,ioos:station:wmo:42044:1,2014-03-04T22:30:00Z,26.1914,-97.0507,1016.66,11111222 
TABS,ioos:station:wmo:42044:1,2014-03-04T23:00:00Z,26.1914,-97.0507,1016.62,11111222 
TABS,ioos:station:wmo:42044:1,2014-03-04T23:30:00Z,26.1914,-97.0507,1016.67,11111222 
TABS,ioos:station:wmo:42044:1,2014-03-05T00:00:00Z,26.1914,-97.0507,1016.45,11111222 
TABS,ioos:station:wmo:42044:1,2014-03-05T00:30:00Z,26.1914,-97.0507,1016.53,11111222 
TABS,ioos:station:wmo:42044:1,2014-03-05T01:00:00Z,26.1914,-97.0507,1016.55,11111222 
TABS,ioos:station:wmo:42044:1,2014-03-05T01:30:00Z,26.1914,-97.0507,1016.48,11111222 
TABS,ioos:station:wmo:42044:1,2014-03-05T02:00:00Z,26.1914,-97.0507,1016.51,11111222 
TABS,ioos:station:wmo:42044:1,2014-03-05T02:30:00Z,26.1914,-97.0507,1016.68,11111222 
TABS,ioos:station:wmo:42044:1,2014-03-05T03:00:00Z,26.1914,-97.0507,1016.76,11111222 
TABS,ioos:station:wmo:42044:1,2014-03-05T03:30:00Z,26.1914,-97.0507,1017.03,11111222 
TABS,ioos:station:wmo:42044:1,2014-03-05T04:00:00Z,26.1914,-97.0507,1016.92,11111222 
TABS,ioos:station:wmo:42044:1,2014-03-05T04:30:00Z,26.1914,-97.0507,1016.81,11111222 
TABS,ioos:station:wmo:42044:1,2014-03-05T05:00:00Z,26.1914,-97.0507,1016.56,11111222 
TABS,ioos:station:wmo:42044:1,2014-03-05T05:30:00Z,26.1914,-97.0507,1016.33,11111222 
TABS,ioos:station:wmo:42044:1,2014-03-05T06:00:00Z,26.1914,-97.0507,1015.94,11111222 
TABS,ioos:station:wmo:42044:1,2014-03-05T06:30:00Z,26.1914,-97.0507,1015.9,11111222 
TABS,ioos:station:wmo:42044:1,2014-03-05T07:00:00Z,26.1914,-97.0507,1015.7,11111222 
TABS,ioos:station:wmo:42044:1,2014-03-05T07:30:00Z,26.1914,-97.0507,1015.45,11111222 
TABS,ioos:station:wmo:42044:1,2014-03-05T08:00:00Z,26.1914,-97.0507,1015.14,11111222 
TABS,ioos:station:wmo:42044:1,2014-03-05T08:30:00Z,26.1914,-97.0507,1014.88,11111222 
TABS,ioos:station:wmo:42044:1,2014-03-05T09:00:00Z,26.1914,-97.0507,1014.61,11111222 
TABS,ioos:station:wmo:42044:1,2014-03-05T09:30:00Z,26.1914,-97.0507,1014.05,11111222 
TABS,ioos:station:wmo:42044:1,2014-03-05T10:00:00Z,26.1914,-97.0507,1013.66,11111222 
TABS,ioos:station:wmo:42044:1,2014-03-05T10:30:00Z,26.1914,-97.0507,1013.71,11111222 
TABS,ioos:station:wmo:42044:1,2014-03-05T11:00:00Z,26.1914,-97.0507,1013.81,11111222 
TABS,ioos:station:wmo:42044:1,2014-03-05T11:30:00Z,26.1914,-97.0507,1014.08,11111222 
TABS,ioos:station:wmo:42044:1,2014-03-05T12:00:00Z,26.1914,-97.0507,1014.29,11111222 
TABS,ioos:station:wmo:42044:1,2014-03-05T12:30:00Z,26.1914,-97.0507,1014.47,11111222 
TABS,ioos:station:wmo:42044:1,2014-03-05T13:00:00Z,26.1914,-97.0507,1014.51,11111222 
TABS,ioos:station:wmo:42044:1,2014-03-05T13:30:00Z,26.1914,-97.0507,1014.74,11111222 
TABS,ioos:station:wmo:42044:1,2014-03-05T14:00:00Z,26.1914,-97.0507,1014.8,11111222 
TABS,ioos:station:wmo:42044:1,2014-03-05T14:30:00Z,26.1914,-97.0507,1015.14,11111222 
TABS,ioos:station:wmo:42044:1,2014-03-05T15:00:00Z,26.1914,-97.0507,1015.1,11111222 
TABS,ioos:station:wmo:42044:1,2014-03-05T15:30:00Z,26.1914,-97.0507,1014.94,11111222 
TABS,ioos:station:wmo:42044:1,2014-03-05T16:00:00Z,26.1914,-97.0507,1015.37,11111222 
TABS,ioos:station:wmo:42044:1,2014-03-05T16:30:00Z,26.1914,-97.0507,1014.96,11111222 
TABS,ioos:station:wmo:42044:1,2014-03-05T17:00:00Z,26.1914,-97.0507,1014.89,11111222 
TABS,ioos:station:wmo:42044:1,2014-03-05T17:30:00Z,26.1914,-97.0507,1014.65,11111222 
TABS,ioos:station:wmo:42044:1,2014-03-05T18:00:00Z,26.1914,-97.0507,1014.28,11111222 
TABS,ioos:station:wmo:42044:1,2014-03-05T18:30:00Z,26.1914,-97.0507,1013.83,11111222 
TABS,ioos:station:wmo:42044:1,2014-03-05T19:00:00Z,26.1914,-97.0507,1013.82,11111222 
TABS,ioos:station:wmo:42044:1,2014-03-05T19:30:00Z,26.1914,-97.0507,1013.34,11111222 
TABS,ioos:station:wmo:42044:1,2014-03-05T20:00:00Z,26.1914,-97.0507,1013.15,11111222 
TABS,ioos:station:wmo:42044:1,2014-03-05T20:30:00Z,26.1914,-97.0507,1013.07,11111222 
TABS,ioos:station:wmo:42044:1,2014-03-05T21:00:00Z,26.1914,-97.0507,1012.85,11111222 
TABS,ioos:station:wmo:42044:1,2014-03-05T21:30:00Z,26.1914,-97.0507,1012.64,11111222 
TABS,ioos:station:wmo:42044:1,2014-03-05T22:00:00Z,26.1914,-97.0507,1012.92,11111222 
TABS,ioos:station:wmo:42044:1,2014-03-05T22:30:00Z,26.1914,-97.0507,1013.05,11111222 
TABS,ioos:station:wmo:42044:1,2014-03-05T23:00:00Z,26.1914,-97.0507,1013.09,11111222 
TABS,ioos:station:wmo:42044:1,2014-03-05T23:30:00Z,26.1914,-97.0507,1013.4,11111222 
TABS,ioos:station:wmo:42044:1,2014-03-06T00:00:00Z,26.1914,-97.0507,1013.39,11111222 
TABS,ioos:station:wmo:42044:1,2014-03-06T00:30:00Z,26.1914,-97.0507,1014.13,11111222 
TABS,ioos:station:wmo:42044:1,2014-03-06T01:00:00Z,26.1914,-97.0507,1014.73,11111222 
TABS,ioos:station:wmo:42044:1,2014-03-06T01:30:00Z,26.1914,-97.0507,1015.32,11111222 
TABS,ioos:station:wmo:42044:1,2014-03-06T02:00:00Z,26.1914,-97.0507,1015.2,11111222 
TABS,ioos:station:wmo:42044:1,2014-03-06T02:30:00Z,26.1914,-97.0507,1015.7,11111222 
TABS,ioos:station:wmo:42044:1,2014-03-06T03:00:00Z,26.1914,-97.0507,1015.65,11111222 
TABS,ioos:station:wmo:42044:1,2014-03-06T03:30:00Z,26.1914,-97.0507,1016.19,11111222 
TABS,ioos:station:wmo:42044:1,2014-03-06T04:00:00Z,26.1914,-97.0507,1016.61,11111222 
TABS,ioos:station:wmo:42044:1,2014-03-06T04:30:00Z,26.1914,-97.0507,1017.18,11111222 
TABS,ioos:station:wmo:42044:1,2014-03-06T05:00:00Z,26.1914,-97.0507,1017.34,11111222 
TABS,ioos:station:wmo:42044:1,2014-03-06T05:30:00Z,26.1914,-97.0507,1017.47,11111222 
TABS,ioos:station:wmo:42044:1,2014-03-06T06:00:00Z,26.1914,-97.0507,1017.34,11111222 
TABS,ioos:station:wmo:42044:1,2014-03-06T06:30:00Z,26.1914,-97.0507,1017.51,11111222 
TABS,ioos:station:wmo:42044:1,2014-03-06T07:00:00Z,26.1914,-97.0507,1017.81,11111222 
TABS,ioos:station:wmo:42044:1,2014-03-06T07:30:00Z,26.1914,-97.0507,1017.92,11111222 
TABS,ioos:station:wmo:42044:1,2014-03-06T08:00:00Z,26.1914,-97.0507,1018.0,11111222 
TABS,ioos:station:wmo:42044:1,2014-03-06T08:30:00Z,26.1914,-97.0507,1017.92,11111222 
TABS,ioos:station:wmo:42044:1,2014-03-06T09:00:00Z,26.1914,-97.0507,1018.22,11111222 
TABS,ioos:station:wmo:42044:1,2014-03-06T09:30:00Z,26.1914,-97.0507,1018.4,11111222 
TABS,ioos:station:wmo:42044:1,2014-03-06T10:00:00Z,26.1914,-97.0507,1018.53,11111222 
TABS,ioos:station:wmo:42044:1,2014-03-06T10:30:00Z,26.1914,-97.0507,1018.65,11111222 
TABS,ioos:station:wmo:42044:1,2014-03-06T11:00:00Z,26.1914,-97.0507,1019.3,11111222 
TABS,ioos:station:wmo:42044:1,2014-03-06T11:30:00Z,26.1914,-97.0507,1019.56,11111222 
TABS,ioos:station:wmo:42044:1,2014-03-06T12:00:00Z,26.1914,-97.0507,1020.07,11111222 
TABS,ioos:station:wmo:42044:1,2014-03-06T12:30:00Z,26.1914,-97.0507,1020.44,11111222 
TABS,ioos:station:wmo:42044:1,2014-03-06T13:00:00Z,26.1914,-97.0507,1021.02,11111222 
TABS,ioos:station:wmo:42044:1,2014-03-06T13:30:00Z,26.1914,-97.0507,1021.53,11111222 
TABS,ioos:station:wmo:42044:1,2014-03-06T14:00:00Z,26.1914,-97.0507,1021.93,11111222 
TABS,ioos:station:wmo:42044:1,2014-03-06T14:30:00Z,26.1914,-97.0507,1022.18,11111222 
TABS,ioos:station:wmo:42044:1,2014-03-06T15:00:00Z,26.1914,-97.0507,1022.76,11111222 
TABS,ioos:station:wmo:42044:1,2014-03-06T15:30:00Z,26.1914,-97.0507,1023.11,11111222 
TABS,ioos:station:wmo:42044:1,2014-03-06T16:00:00Z,26.1914,-97.0507,1022.94,11111222 
TABS,ioos:station:wmo:42044:1,2014-03-06T16:30:00Z,26.1914,-97.0507,1023.1,11111222 
TABS,ioos:station:wmo:42044:1,2014-03-06T17:00:00Z,26.1914,-97.0507,1022.91,11111222 
TABS,ioos:station:wmo:42044:1,2014-03-06T17:30:00Z,26.1914,-97.0507,1022.97,11111222 
TABS,ioos:station:wmo:42044:1,2014-03-06T18:00:00Z,26.1914,-97.0507,1022.95,11111222 
TABS,ioos:station:wmo:42044:1,2014-03-06T18:30:00Z,26.1914,-97.0507,1022.61,11111222 